"SCET";"TARGET";"ELECTRON_DENSITY";"ERROR_FLAG";"ELECTRON_DENSITY_ERROR";"FREQ_FCE";"MEASURED_VALUE";"MEASURED_ITEM";"FREQ_PLASMA";"FREQ_UPPER_HYBRID";"FREQ_R_EQUALS_ZERO";"FREQ_L_EQUALS_ZERO";"ORBIT_NUMBER";"SATURN_RADIUS";"SATURN_IAU_LONGITUDE";"SATURN_SLS4_S_LONGITUDE";"SATURN_SLS4_N_LONGITUDE";"SATURN_SLS5_S_LONGITUDE";"SATURN_SLS5_N_LONGITUDE";"SATURN_LOCAL_TIME";"SATURN_KRONOGRAPHIC_LATITUDE";"SATURN_MAGNETIC_LATITUDE";"SATURN_L";"SATURN_L_OFFSET";"SATURN_SOLAR_EQUATORIAL_X";"SATURN_SOLAR_EQUATORIAL_Y";"SATURN_SOLAR_EQUATORIAL_Z";"SATURN_ALTITUDE";"ENCELADUS_ENCOUNTER_NUMBER";"ENCELADUS_RADIUS";"ENCELADUS_COROTATIONAL_X";"ENCELADUS_COROTATIONAL_Y";"ENCELADUS_COROTATIONAL_Z";"ENCELADUS_TRUE_ANOMALY";"ENCELADUS_PERIAPSIS_TIME";"JUPITER_RADIUS";"JUPITER_SYSTEMIII_LONGITUDE";"JUPITER_MAGNETIC_LATITUDE";"JUPITER_MAGNETIC_LOCAL_TIME";"JUPITER_L";"IO_PHASE";"EARTH_RADIUS";"EARTH_MAGNETIC_LATITUDE";"EARTH_LOCAL_TIME";"EARTH_L"
"[UTC]";"[0=Saturn, 1=Enceladus, 2=Jupiter, 3=Earth]";"[cm-3]";"[0=automated, 1=manual]";"[normalized density error]";"[Hz]";"[Hz]";"[0=upper hybrid frequency, 1=plasma frequency cutoff]";"[Hz]";"[Hz]";"[Hz]";"[Hz}";"[0, A, B, C, 3, 4, ... , 292, 293]";"[Rs where 1Rs=60268km]";"[degrees]";"[degrees]";"[degrees]";"[degrees]";"[degrees]";"[hours]";"[degrees]";"[degrees where offset=2293km north]";"[Rs where 1Rs=60268km]";"[Rs where 1Rs=60268km and offset=2293km north]";"[Rs where 1Rs=60268km]";"[Rs where 1Rs=60268km]";"[Rs where 1Rs=60268km]";"[km where ellipsoid a,b=60268km and c=54364km]";"[E0, E1, E2, ... , E21, E22]";"[Renc where 1Renc=252.1km]";"[Renc where 1Renc=252.1km]";"[Renc where 1Renc=252.1km]";"[Renc where 1Renc=252.1km]";"[degrees]";"[UTC]";"[Rj where 1Rj=71492km]";"[degrees]";"[degrees using JRM09 model]";"[hours using JRM09 model]";"[Rj where 1Rj=71492km]";"[degrees]";"[Re where 1Re=6378.1366km]";"[degrees]";"[hours]";"[Re where 1Re=6378.1366km]"
2010-08-14T00:00:06.774Z;1;2.5110e+01;0;     0.062; 12665.128;  46748.383; 0;  45000.066;  46748.383;  51776.016;  39110.887;136;   3.549; 239.744;;; 300.073; 284.473;   5.168;   1.204;   0.590;   3.551;   3.545;  -0.767;  -3.465;   0.075;;E11; 147.467; 105.141; 101.835;  18.002;  83.363;2010-08-13T16:26:11.000;;;;;;;;;;
2010-08-14T00:00:14.774Z;1;2.5230e+01;0;     0.059; 12670.000;  46848.215; 0;  45102.398;  46848.215;  51880.125;  39210.125;136;   3.549; 239.780;;; 300.109; 284.509;   5.170;   1.207;   0.593;   3.551;   3.545;  -0.765;  -3.465;   0.075;;E11; 147.690; 105.334; 101.950;  18.044;  83.387;2010-08-13T16:26:11.000;;;;;;;;;;
2010-08-14T00:00:22.774Z;1;2.5350e+01;0;     0.062; 12674.844;  46958.414; 0;  45215.496;  46958.414;  51994.883;  39320.039;136;   3.549; 239.817;;; 300.145; 284.545;   5.173;   1.210;   0.595;   3.550;   3.545;  -0.762;  -3.465;   0.075;;E11; 147.912; 105.527; 102.065;  18.087;  83.411;2010-08-13T16:26:11.000;;;;;;;;;;
2010-08-14T00:00:38.774Z;1;2.5200e+01;0;     0.062; 12684.588;  46826.656; 0;  45075.902;  46826.656;  51862.199;  39177.609;136;   3.548; 239.891;;; 300.218; 284.618;   5.178;   1.216;   0.601;   3.550;   3.544;  -0.757;  -3.465;   0.075;;E11; 148.357; 105.915; 102.294;  18.172;  83.460;2010-08-13T16:26:11.000;;;;;;;;;;
2010-08-14T00:00:46.774Z;1;2.5350e+01;0;     0.064; 12689.460;  46958.254; 0;  45211.230;  46958.254;  51998.984;  39309.523;136;   3.548; 239.927;;; 300.255; 284.655;   5.180;   1.219;   0.604;   3.549;   3.543;  -0.755;  -3.465;   0.075;;E11; 148.579; 106.108; 102.409;  18.214;  83.484;2010-08-13T16:26:11.000;;;;;;;;;;
2010-08-14T00:00:54.774Z;1;2.5220e+01;0;     0.057; 12694.305;  46850.973; 0;  45098.430;  46850.973;  51890.039;  39195.734;136;   3.547; 239.964;;; 300.291; 284.691;   5.183;   1.222;   0.607;   3.549;   3.543;  -0.753;  -3.466;   0.076;;E11; 148.802; 106.302; 102.523;  18.257;  83.509;2010-08-13T16:26:11.000;;;;;;;;;;
2010-08-14T00:01:26.773Z;1;2.5140e+01;0;     0.063; 12708.947;  46780.883; 0;  45021.480;  46780.883;  51822.188;  39113.238;136;   3.546; 240.111;;; 300.436; 284.836;   5.193;   1.234;   0.619;   3.548;   3.542;  -0.743;  -3.466;   0.076;;E11; 149.691; 107.078; 102.979;  18.427;  83.606;2010-08-13T16:26:11.000;;;;;;;;;;
2010-08-14T00:01:34.773Z;1;2.5190e+01;0;     0.064; 12712.447;  46825.656; 0;  45067.016;  46825.656;  51869.270;  39156.820;136;   3.546; 240.148;;; 300.473; 284.873;   5.196;   1.237;   0.622;   3.547;   3.541;  -0.741;  -3.466;   0.077;;E11; 149.914; 107.273; 103.093;  18.469;  83.631;2010-08-13T16:26:11.000;;;;;;;;;;
2010-08-14T00:01:42.773Z;1;2.5150e+01;0;     0.059; 12715.920;  46796.145; 0;  45035.371;  46796.145;  51839.914;  39123.992;136;   3.545; 240.185;;; 300.509; 284.909;   5.198;   1.240;   0.625;   3.547;   3.541;  -0.738;  -3.467;   0.077;;E11; 150.136; 107.467; 103.207;  18.512;  83.655;2010-08-13T16:26:11.000;;;;;;;;;;
2010-08-14T00:01:50.773Z;1;2.5190e+01;0;     0.065; 12719.393;  46832.516; 0;  45072.184;  46832.516;  51878.344;  39158.953;136;   3.545; 240.221;;; 300.545; 284.945;   5.201;   1.243;   0.628;   3.546;   3.541;  -0.736;  -3.467;   0.077;;E11; 150.359; 107.661; 103.320;  18.554;  83.679;2010-08-13T16:26:11.000;;;;;;;;;;
2010-08-14T00:01:58.773Z;1;2.5320e+01;0;     0.063; 12722.893;  46944.934; 0;  45187.992;  46944.934;  51995.016;  39272.125;136;   3.544; 240.258;;; 300.581; 284.981;   5.203;   1.246;   0.631;   3.546;   3.540;  -0.733;  -3.467;   0.077;;E11; 150.581; 107.856; 103.434;  18.596;  83.704;2010-08-13T16:26:11.000;;;;;;;;;;
2010-08-14T00:02:14.773Z;1;2.6730e+01;0;     0.080; 12731.236;  48142.742; 0;  46428.863;  48142.742;  53228.828;  40497.590;136;   3.544; 240.332;;; 300.654; 285.054;   5.209;   1.252;   0.637;   3.545;   3.539;  -0.729;  -3.467;   0.077;;E11; 151.026; 108.245; 103.661;  18.681;  83.752;2010-08-13T16:26:11.000;;;;;;;;;;
2010-08-14T00:02:22.773Z;1;2.5720e+01;0;     0.059; 12735.408;  47291.379; 0;  45544.309;  47291.379;  52355.000;  39619.594;136;   3.543; 240.368;;; 300.690; 285.090;   5.211;   1.255;   0.640;   3.545;   3.539;  -0.726;  -3.467;   0.078;;E11; 151.249; 108.440; 103.774;  18.724;  83.777;2010-08-13T16:26:11.000;;;;;;;;;;
2010-08-14T00:02:30.773Z;1;2.6700e+01;0;     0.089; 12739.580;  48116.469; 0;  46399.328;  48116.469;  53204.305;  40464.727;136;   3.543; 240.405;;; 300.727; 285.127;   5.214;   1.258;   0.642;   3.545;   3.539;  -0.724;  -3.467;   0.078;;E11; 151.472; 108.635; 103.887;  18.766;  83.801;2010-08-13T16:26:11.000;;;;;;;;;;
2010-08-14T00:02:38.773Z;1;2.6800e+01;0;     0.089; 12743.780;  48205.324; 0;  46490.316;  48205.324;  53296.832;  40553.055;136;   3.543; 240.442;;; 300.763; 285.163;   5.216;   1.261;   0.645;   3.544;   3.538;  -0.721;  -3.467;   0.078;;E11; 151.694; 108.830; 104.000;  18.809;  83.825;2010-08-13T16:26:11.000;;;;;;;;;;
2010-08-14T00:02:46.773Z;1;2.7120e+01;0;     0.091; 12747.952;  48472.797; 0;  46766.461;  48472.797;  53572.805;  40824.852;136;   3.542; 240.478;;; 300.799; 285.199;   5.219;   1.264;   0.648;   3.544;   3.538;  -0.719;  -3.468;   0.078;;E11; 151.917; 109.025; 104.113;  18.851;  83.850;2010-08-13T16:26:11.000;;;;;;;;;;
2010-08-14T00:03:02.773Z;1;2.7480e+01;0;     0.072; 12756.101;  48771.340; 0;  47073.617;  48771.340;  53881.785;  41125.688;136;   3.542; 240.552;;; 300.871; 285.271;   5.224;   1.270;   0.654;   3.543;   3.537;  -0.714;  -3.468;   0.078;;E11; 152.362; 109.415; 104.338;  18.936;  83.898;2010-08-13T16:26:11.000;;;;;;;;;;
2010-08-14T00:03:10.773Z;1;2.7800e+01;0;     0.067; 12759.853;  49036.758; 0;  47347.543;  49036.758;  54155.371;  41395.520;136;   3.541; 240.588;;; 300.908; 285.308;   5.227;   1.273;   0.657;   3.543;   3.537;  -0.712;  -3.468;   0.079;;E11; 152.584; 109.611; 104.451;  18.978;  83.923;2010-08-13T16:26:11.000;;;;;;;;;;
2010-08-14T00:03:18.772Z;1;2.7400e+01;0;     0.080; 12763.576;  48704.586; 0;  47002.422;  48704.586;  53815.480;  41051.902;136;   3.541; 240.625;;; 300.944; 285.344;   5.229;   1.276;   0.660;   3.543;   3.537;  -0.709;  -3.468;   0.079;;E11; 152.807; 109.806; 104.563;  19.021;  83.947;2010-08-13T16:26:11.000;;;;;;;;;;
2010-08-14T00:03:26.772Z;1;2.7590e+01;0;     0.083; 12767.328;  48866.711; 0;  47169.383;  48866.711;  53983.055;  41215.727;136;   3.541; 240.661;;; 300.980; 285.380;   5.232;   1.279;   0.663;   3.542;   3.536;  -0.707;  -3.468;   0.079;;E11; 153.030; 110.002; 104.675;  19.063;  83.972;2010-08-13T16:26:11.000;;;;;;;;;;
2010-08-14T00:03:34.772Z;1;2.7430e+01;0;     0.091; 12771.053;  48731.742; 0;  47028.531;  48731.742;  53845.594;  41074.539;136;   3.540; 240.698;;; 301.016; 285.416;   5.234;   1.282;   0.666;   3.542;   3.536;  -0.705;  -3.468;   0.079;;E11; 153.252; 110.197; 104.788;  19.105;  83.996;2010-08-13T16:26:11.000;;;;;;;;;;
2010-08-14T00:03:50.772Z;1;2.7560e+01;0;     0.077; 12778.528;  48844.852; 0;  47143.703;  48844.852;  53963.957;  41185.430;136;   3.540; 240.771;;; 301.089; 285.489;   5.239;   1.288;   0.672;   3.541;   3.535;  -0.700;  -3.469;   0.080;;E11; 153.697; 110.589; 105.012;  19.190;  84.045;2010-08-13T16:26:11.000;;;;;;;;;;
2010-08-14T00:03:58.772Z;1;2.7590e+01;0;     0.083; 12782.280;  48871.418; 0;  47170.211;  48871.418;  53992.352;  41210.074;136;   3.539; 240.808;;; 301.125; 285.525;   5.242;   1.291;   0.675;   3.541;   3.535;  -0.697;  -3.469;   0.080;;E11; 153.920; 110.785; 105.124;  19.232;  84.069;2010-08-13T16:26:11.000;;;;;;;;;;
2010-08-14T00:04:06.772Z;1;2.7390e+01;0;     0.074; 12786.032;  48703.270; 0;  46994.957;  48703.270;  53820.820;  41034.785;136;   3.539; 240.844;;; 301.161; 285.561;   5.244;   1.294;   0.678;   3.541;   3.535;  -0.695;  -3.469;   0.080;;E11; 154.143; 110.980; 105.235;  19.275;  84.093;2010-08-13T16:26:11.000;;;;;;;;;;
2010-08-14T00:04:14.772Z;1;2.7210e+01;0;     0.068; 12789.756;  48557.926; 0;  46843.297;  48557.926;  53672.660;  40882.906;136;   3.539; 240.881;;; 301.197; 285.597;   5.247;   1.297;   0.681;   3.540;   3.534;  -0.693;  -3.469;   0.080;;E11; 154.365; 111.176; 105.347;  19.317;  84.118;2010-08-13T16:26:11.000;;;;;;;;;;
2010-08-14T00:04:22.772Z;1;2.7220e+01;0;     0.075; 12793.508;  48567.535; 0;  46852.230;  48567.535;  53683.645;  40890.137;136;   3.538; 240.918;;; 301.233; 285.633;   5.250;   1.300;   0.684;   3.540;   3.534;  -0.690;  -3.469;   0.080;;E11; 154.588; 111.373; 105.459;  19.359;  84.142;2010-08-13T16:26:11.000;;;;;;;;;;
2010-08-14T00:04:38.772Z;1;2.6880e+01;0;     0.070; 12800.984;  48282.070; 0;  46554.195;  48282.070;  53392.613;  40591.629;136;   3.537; 240.991;;; 301.306; 285.706;   5.255;   1.306;   0.689;   3.539;   3.533;  -0.685;  -3.469;   0.081;;E11; 155.033; 111.765; 105.681;  19.444;  84.191;2010-08-13T16:26:11.000;;;;;;;;;;
2010-08-14T00:04:46.772Z;1;2.7050e+01;0;     0.072; 12804.708;  48425.012; 0;  46701.406;  48425.012;  53540.570;  40735.859;136;   3.537; 241.027;;; 301.342; 285.742;   5.257;   1.309;   0.692;   3.539;   3.533;  -0.683;  -3.470;   0.081;;E11; 155.256; 111.961; 105.793;  19.487;  84.215;2010-08-13T16:26:11.000;;;;;;;;;;
2010-08-14T00:04:54.772Z;1;2.6810e+01;0;     0.065; 12808.460;  48224.895; 0;  46492.836;  48224.895;  53336.074;  40527.613;136;   3.537; 241.064;;; 301.378; 285.778;   5.260;   1.312;   0.695;   3.539;   3.533;  -0.681;  -3.470;   0.081;;E11; 155.479; 112.158; 105.904;  19.529;  84.239;2010-08-13T16:26:11.000;;;;;;;;;;
2010-08-14T00:05:02.772Z;1;2.6560e+01;0;     0.072; 12812.604;  48017.152; 0;  46276.172;  48017.152;  53123.801;  40311.199;136;   3.536; 241.100;;; 301.414; 285.814;   5.262;   1.315;   0.698;   3.538;   3.532;  -0.678;  -3.470;   0.081;;E11; 155.702; 112.354; 106.015;  19.571;  84.264;2010-08-13T16:26:11.000;;;;;;;;;;
2010-08-14T00:05:10.772Z;1;2.6890e+01;0;     0.076; 12817.195;  48295.156; 0;  46563.309;  48295.156;  53410.852;  40593.656;136;   3.536; 241.137;;; 301.450; 285.850;   5.265;   1.318;   0.701;   3.538;   3.532;  -0.676;  -3.470;   0.081;;E11; 155.924; 112.551; 106.126;  19.613;  84.288;2010-08-13T16:26:11.000;;;;;;;;;;
2010-08-14T00:05:26.772Z;1;2.6630e+01;0;     0.071; 12826.408;  48079.527; 0;  46337.070;  48079.527;  53191.977;  40365.566;136;   3.535; 241.210;;; 301.522; 285.922;   5.270;   1.324;   0.707;   3.537;   3.531;  -0.671;  -3.470;   0.082;;E11; 156.370; 112.945; 106.347;  19.698;  84.337;2010-08-13T16:26:11.000;;;;;;;;;;
2010-08-14T00:05:34.772Z;1;2.6650e+01;0;     0.067; 12831.000;  48102.086; 0;  46359.207;  48102.086;  53216.512;  40385.512;136;   3.535; 241.246;;; 301.558; 285.958;   5.273;   1.327;   0.710;   3.537;   3.531;  -0.669;  -3.470;   0.082;;E11; 156.593; 113.142; 106.458;  19.740;  84.361;2010-08-13T16:26:11.000;;;;;;;;;;
2010-08-14T00:05:42.771Z;1;2.6940e+01;0;     0.075; 12835.620;  48345.180; 0;  46610.121;  48345.180;  53467.695;  40632.074;136;   3.535; 241.283;;; 301.594; 285.994;   5.275;   1.330;   0.713;   3.537;   3.530;  -0.666;  -3.470;   0.082;;E11; 156.815; 113.339; 106.568;  19.783;  84.385;2010-08-13T16:26:11.000;;;;;;;;;;
2010-08-14T00:05:50.771Z;1;2.6740e+01;0;     0.069; 12840.212;  48180.539; 0;  46438.059;  48180.539;  53299.855;  40459.645;136;   3.534; 241.319;;; 301.630; 286.030;   5.278;   1.333;   0.716;   3.536;   3.530;  -0.664;  -3.470;   0.082;;E11; 157.038; 113.536; 106.679;  19.825;  84.410;2010-08-13T16:26:11.000;;;;;;;;;;
2010-08-14T00:05:58.771Z;1;2.6750e+01;0;     0.077; 12844.832;  48191.535; 0;  46448.191;  48191.535;  53312.520;  40467.688;136;   3.534; 241.356;;; 301.666; 286.066;   5.280;   1.336;   0.719;   3.536;   3.530;  -0.661;  -3.471;   0.082;;E11; 157.261; 113.733; 106.789;  19.867;  84.434;2010-08-13T16:26:11.000;;;;;;;;;;
2010-08-14T00:06:14.771Z;1;2.6540e+01;0;     0.076; 12850.208;  48015.766; 0;  46264.305;  48015.766;  53133.430;  40283.223;136;   3.533; 241.429;;; 301.738; 286.138;   5.286;   1.342;   0.725;   3.535;   3.529;  -0.657;  -3.471;   0.083;;E11; 157.706; 114.127; 107.009;  19.952;  84.483;2010-08-13T16:26:11.000;;;;;;;;;;
2010-08-14T00:06:22.771Z;1;2.6020e+01;0;     0.071; 12852.868;  47572.910; 0;  45803.773;  47572.910;  52678.836;  39825.969;136;   3.533; 241.465;;; 301.774; 286.174;   5.288;   1.345;   0.728;   3.535;   3.529;  -0.654;  -3.471;   0.083;;E11; 157.929; 114.325; 107.119;  19.994;  84.507;2010-08-13T16:26:11.000;;;;;;;;;;
2010-08-14T00:06:30.771Z;1;2.5940e+01;0;     0.084; 12855.528;  47508.934; 0;  45736.574;  47508.934;  52613.805;  39758.277;136;   3.533; 241.502;;; 301.810; 286.210;   5.291;   1.348;   0.731;   3.535;   3.528;  -0.652;  -3.471;   0.083;;E11; 158.152; 114.522; 107.229;  20.036;  84.532;2010-08-13T16:26:11.000;;;;;;;;;;
2010-08-14T00:06:38.771Z;1;2.5910e+01;0;     0.080; 12858.188;  47487.121; 0;  45713.168;  47487.121;  52592.141;  39733.953;136;   3.532; 241.538;;; 301.846; 286.246;   5.293;   1.351;   0.734;   3.534;   3.528;  -0.649;  -3.471;   0.083;;E11; 158.375; 114.720; 107.339;  20.079;  84.556;2010-08-13T16:26:11.000;;;;;;;;;;
2010-08-14T00:06:46.771Z;1;2.5950e+01;0;     0.088; 12860.876;  47519.953; 0;  45746.516;  47519.953;  52626.695;  39765.820;136;   3.532; 241.575;;; 301.882; 286.283;   5.296;   1.354;   0.736;   3.534;   3.528;  -0.647;  -3.471;   0.083;;E11; 158.598; 114.917; 107.448;  20.121;  84.580;2010-08-13T16:26:11.000;;;;;;;;;;
2010-08-14T00:07:02.771Z;1;2.5190e+01;0;     0.070; 12867.147;  46874.473; 0;  45073.859;  46874.473;  51964.262;  39097.113;136;   3.531; 241.647;;; 301.954; 286.354;   5.301;   1.359;   0.742;   3.533;   3.527;  -0.642;  -3.471;   0.084;;E11; 159.043; 115.313; 107.667;  20.205;  84.629;2010-08-13T16:26:11.000;;;;;;;;;;
2010-08-14T00:07:10.771Z;1;2.5310e+01;0;     0.069; 12871.853;  46975.184; 0;  45177.242;  46975.184;  52069.297;  39197.445;136;   3.531; 241.684;;; 301.990; 286.390;   5.304;   1.362;   0.745;   3.533;   3.527;  -0.640;  -3.472;   0.084;;E11; 159.266; 115.511; 107.777;  20.248;  84.653;2010-08-13T16:26:11.000;;;;;;;;;;
2010-08-14T00:07:18.771Z;1;2.5240e+01;0;     0.074; 12876.557;  46920.336; 0;  45118.867;  46920.336;  52014.188;  39137.633;136;   3.531; 241.720;;; 302.026; 286.426;   5.306;   1.365;   0.748;   3.533;   3.526;  -0.637;  -3.472;   0.084;;E11; 159.489; 115.709; 107.886;  20.290;  84.678;2010-08-13T16:26:11.000;;;;;;;;;;
2010-08-14T00:07:26.771Z;1;2.5210e+01;0;     0.073; 12881.261;  46894.379; 0;  45090.531;  46894.379;  51988.820;  39107.559;136;   3.530; 241.757;;; 302.062; 286.462;   5.309;   1.368;   0.751;   3.533;   3.526;  -0.635;  -3.472;   0.084;;E11; 159.712; 115.907; 107.995;  20.332;  84.702;2010-08-13T16:26:11.000;;;;;;;;;;
2010-08-14T00:07:34.771Z;1;2.5400e+01;0;     0.064; 12885.965;  47053.227; 0;  45254.371;  47053.227;  52153.703;  39267.738;136;   3.530; 241.793;;; 302.098; 286.498;   5.311;   1.371;   0.754;   3.532;   3.526;  -0.633;  -3.472;   0.085;;E11; 159.935; 116.105; 108.104;  20.374;  84.726;2010-08-13T16:26:11.000;;;;;;;;;;
2010-08-14T00:07:50.771Z;1;2.5210e+01;0;     0.059; 12895.344;  46892.172; 0;  45084.207;  46892.172;  51990.602;  39095.258;136;   3.530; 241.866;;; 302.170; 286.570;   5.316;   1.377;   0.760;   3.532;   3.525;  -0.628;  -3.472;   0.085;;E11; 160.380; 116.502; 108.321;  20.459;  84.775;2010-08-13T16:26:11.000;;;;;;;;;;
2010-08-14T00:07:58.771Z;1;2.5240e+01;0;     0.066; 12900.048;  46922.457; 0;  45114.363;  46922.457;  52023.137;  39123.090;136;   3.529; 241.902;;; 302.206; 286.606;   5.319;   1.380;   0.763;   3.531;   3.525;  -0.625;  -3.472;   0.085;;E11; 160.603; 116.700; 108.430;  20.501;  84.799;2010-08-13T16:26:11.000;;;;;;;;;;
2010-08-14T00:08:06.770Z;1;2.5490e+01;0;     0.082; 12903.016;  47136.965; 0;  45336.582;  47136.965;  52244.820;  39341.805;136;   3.529; 241.939;;; 302.242; 286.642;   5.322;   1.383;   0.766;   3.531;   3.525;  -0.623;  -3.472;   0.085;;E11; 160.826; 116.899; 108.539;  20.543;  84.824;2010-08-13T16:26:11.000;;;;;;;;;;
2010-08-14T00:08:14.770Z;1;2.5530e+01;0;     0.080; 12905.899;  47173.680; 0;  45373.934;  47173.680;  52283.445;  39377.547;136;   3.529; 241.975;;; 302.278; 286.678;   5.324;   1.386;   0.769;   3.531;   3.524;  -0.621;  -3.472;   0.085;;E11; 161.049; 117.097; 108.647;  20.586;  84.848;2010-08-13T16:26:11.000;;;;;;;;;;
2010-08-14T00:08:22.770Z;1;2.5270e+01;0;     0.073; 12908.784;  46948.730; 0;  45139.191;  46948.730;  52052.699;  39143.918;136;   3.528; 242.011;;; 302.314; 286.714;   5.327;   1.389;   0.772;   3.530;   3.524;  -0.618;  -3.472;   0.086;;E11; 161.272; 117.296; 108.755;  20.628;  84.872;2010-08-13T16:26:11.000;;;;;;;;;;
2010-08-14T00:08:38.770Z;1;2.5440e+01;0;     0.072; 12914.580;  47102.230; 0;  45297.172;  47102.230;  52212.402;  39297.824;136;   3.528; 242.084;;; 302.386; 286.786;   5.332;   1.395;   0.778;   3.530;   3.523;  -0.613;  -3.473;   0.086;;E11; 161.718; 117.694; 108.972;  20.712;  84.921;2010-08-13T16:26:11.000;;;;;;;;;;
2010-08-14T00:08:46.770Z;1;2.5360e+01;0;     0.067; 12917.465;  47026.609; 0;  45217.707;  47026.609;  52135.383;  39217.918;136;   3.527; 242.120;;; 302.422; 286.822;   5.335;   1.398;   0.781;   3.529;   3.523;  -0.611;  -3.473;   0.086;;E11; 161.941; 117.892; 109.080;  20.754;  84.945;2010-08-13T16:26:11.000;;;;;;;;;;
2010-08-14T00:08:54.770Z;1;2.6730e+01;0;     0.101; 12920.349;  48188.512; 0;  46424.102;  48188.512;  53331.605;  40411.258;136;   3.527; 242.157;;; 302.457; 286.857;   5.337;   1.401;   0.784;   3.529;   3.523;  -0.609;  -3.473;   0.086;;E11; 162.164; 118.091; 109.188;  20.796;  84.970;2010-08-13T16:26:11.000;;;;;;;;;;
2010-08-14T00:09:02.770Z;1;2.5550e+01;0;     0.083; 12924.016;  47199.160; 0;  45395.270;  47199.160;  52314.902;  39390.887;136;   3.527; 242.193;;; 302.493; 286.893;   5.340;   1.404;   0.786;   3.529;   3.522;  -0.606;  -3.473;   0.086;;E11; 162.387; 118.291; 109.295;  20.839;  84.994;2010-08-13T16:26:11.000;;;;;;;;;;
2010-08-14T00:09:10.770Z;1;2.5910e+01;0;     0.101; 12928.524;  47507.141; 0;  45714.129;  47507.141;  52633.172;  39704.648;136;   3.526; 242.229;;; 302.529; 286.929;   5.342;   1.407;   0.789;   3.528;   3.522;  -0.604;  -3.473;   0.087;;E11; 162.610; 118.490; 109.403;  20.881;  85.019;2010-08-13T16:26:11.000;;;;;;;;;;
2010-08-14T00:09:26.770Z;1;2.6560e+01;0;     0.095; 12937.540;  48052.855; 0;  46278.473;  48052.855;  53197.156;  40259.613;136;   3.526; 242.302;;; 302.601; 287.001;   5.347;   1.413;   0.795;   3.528;   3.521;  -0.599;  -3.473;   0.087;;E11; 163.056; 118.888; 109.618;  20.965;  85.067;2010-08-13T16:26:11.000;;;;;;;;;;
2010-08-14T00:09:34.770Z;1;2.6680e+01;0;     0.105; 12942.020;  48158.859; 0;  46387.281;  48158.859;  53307.469;  40365.449;136;   3.525; 242.338;;; 302.637; 287.037;   5.350;   1.416;   0.798;   3.528;   3.521;  -0.597;  -3.473;   0.087;;E11; 163.279; 119.088; 109.726;  21.007;  85.092;2010-08-13T16:26:11.000;;;;;;;;;;
2010-08-14T00:09:42.770Z;1;2.5610e+01;0;     0.083; 12946.528;  47249.805; 0;  45441.516;  47249.805;  52373.531;  39427.004;136;   3.525; 242.374;;; 302.672; 287.073;   5.353;   1.419;   0.801;   3.527;   3.521;  -0.594;  -3.473;   0.087;;E11; 163.501; 119.287; 109.833;  21.049;  85.116;2010-08-13T16:26:11.000;;;;;;;;;;
2010-08-14T00:09:50.770Z;1;2.6650e+01;0;     0.096; 12951.035;  48134.926; 0;  46359.914;  48134.926;  53285.496;  40334.461;136;   3.525; 242.411;;; 302.708; 287.108;   5.355;   1.422;   0.804;   3.527;   3.520;  -0.592;  -3.474;   0.088;;E11; 163.724; 119.487; 109.940;  21.092;  85.140;2010-08-13T16:26:11.000;;;;;;;;;;
2010-08-14T00:09:58.770Z;1;2.6270e+01;0;     0.099; 12955.544;  47818.305; 0;  46029.816;  47818.305;  52961.164;  40005.621;136;   3.524; 242.447;;; 302.744; 287.144;   5.358;   1.425;   0.807;   3.527;   3.520;  -0.589;  -3.474;   0.088;;E11; 163.947; 119.686; 110.047;  21.134;  85.165;2010-08-13T16:26:11.000;;;;;;;;;;
2010-08-14T00:10:14.770Z;1;2.6090e+01;0;     0.093; 12960.976;  47661.961; 0;  45865.844;  47661.961;  52801.891;  39840.914;136;   3.524; 242.519;;; 302.816; 287.216;   5.363;   1.431;   0.813;   3.526;   3.519;  -0.585;  -3.474;   0.088;;E11; 164.393; 120.086; 110.261;  21.218;  85.213;2010-08-13T16:26:11.000;;;;;;;;;;
2010-08-14T00:10:22.769Z;1;2.5840e+01;0;     0.086; 12963.636;  47453.062; 0;  45647.973;  47453.062;  52587.688;  39624.051;136;   3.524; 242.556;;; 302.852; 287.252;   5.366;   1.434;   0.816;   3.526;   3.519;  -0.582;  -3.474;   0.088;;E11; 164.616; 120.286; 110.367;  21.260;  85.238;2010-08-13T16:26:11.000;;;;;;;;;;
2010-08-14T00:10:30.769Z;1;2.6590e+01;0;     0.091; 12966.324;  48083.992; 0;  46302.750;  48083.992;  53237.586;  40271.262;136;   3.523; 242.592;;; 302.887; 287.287;   5.368;   1.437;   0.819;   3.525;   3.519;  -0.580;  -3.474;   0.088;;E11; 164.840; 120.486; 110.474;  21.302;  85.262;2010-08-13T16:26:11.000;;;;;;;;;;
2010-08-14T00:10:38.769Z;1;2.6090e+01;0;     0.091; 12969.012;  47665.641; 0;  45867.395;  47665.641;  52808.008;  39838.996;136;   3.523; 242.628;;; 302.923; 287.323;   5.371;   1.440;   0.822;   3.525;   3.519;  -0.577;  -3.474;   0.089;;E11; 165.063; 120.686; 110.580;  21.344;  85.286;2010-08-13T16:26:11.000;;;;;;;;;;
2010-08-14T00:10:46.769Z;1;2.6180e+01;0;     0.081; 12971.700;  47743.207; 0;  45947.238;  47743.207;  52888.598;  39916.898;136;   3.523; 242.664;;; 302.959; 287.359;   5.373;   1.443;   0.825;   3.525;   3.518;  -0.575;  -3.474;   0.089;;E11; 165.286; 120.886; 110.687;  21.386;  85.311;2010-08-13T16:26:11.000;;;;;;;;;;
2010-08-14T00:11:18.769Z;1;2.6140e+01;0;     0.094; 12985.084;  47709.301; 0;  45908.223;  47709.301;  52857.594;  39872.512;136;   3.521; 242.809;;; 303.102; 287.502;   5.384;   1.455;   0.836;   3.524;   3.517;  -0.565;  -3.474;   0.089;;E11; 166.178; 121.688; 111.111;  21.555;  85.408;2010-08-13T16:26:11.000;;;;;;;;;;
2010-08-14T00:11:26.769Z;1;2.5960e+01;0;     0.090; 12988.836;  47561.922; 0;  45753.980;  47561.922;  52707.016;  39718.180;136;   3.521; 242.845;;; 303.138; 287.538;   5.386;   1.458;   0.839;   3.523;   3.517;  -0.563;  -3.475;   0.090;;E11; 166.401; 121.888; 111.217;  21.597;  85.432;2010-08-13T16:26:11.000;;;;;;;;;;